EN

Hourly Weather Acacias

Today, 1 December, Tuesday

Time Temperature Precipitation Wind Pressure Humidity
00:00 +23°C° 1.3 mm 2 mps 714 mmHg 92%
01:00 +23°C° 0 mm 2 mps 714 mmHg 91%
02:00 +23°C° 1.2 mm 1 mps 714 mmHg 91%
03:00 +23°C° 1.2 mm 1 mps 714 mmHg 91%
04:00 +23°C° 1.2 mm 1 mps 714 mmHg 91%
05:00 +24°C° 0.6 mm 1 mps 714 mmHg 91%
06:00 +24°C° 0.6 mm 1 mps 715 mmHg 90%
07:00 +23°C° 0.6 mm 0 mps 715 mmHg 90%
08:00 +26°C° 0.2 mm 1 mps 716 mmHg 85%
09:00 +27°C° 0.2 mm 1 mps 716 mmHg 81%
10:00 +29°C° 0.2 mm 1 mps 716 mmHg 76%
11:00 +29°C° 0.3 mm 1 mps 715 mmHg 75%
12:00 +30°C° 0.3 mm 2 mps 714 mmHg 75%
13:00 +30°C° 0.3 mm 2 mps 713 mmHg 74%
14:00 +30°C° 0.5 mm 2 mps 712 mmHg 78%
15:00 +29°C° 0.5 mm 1 mps 712 mmHg 81%
16:00 +28°C° 0.5 mm 1 mps 711 mmHg 85%
17:00 +27°C° 1 mm 1 mps 712 mmHg 87%
18:00 +26°C° 1 mm 1 mps 712 mmHg 90%
19:00 +25°C° 1 mm 1 mps 713 mmHg 92%
20:00 +25°C° 2.5 mm 1 mps 714 mmHg 93%
21:00 +24°C° 2.5 mm 1 mps 714 mmHg 95%
22:00 +24°C° 2.5 mm 1 mps 715 mmHg 96%
23:00 +24°C° 1.8 mm 1 mps 714 mmHg 96%

Tomorrow, 2 December, Wednesday

Time Temperature Precipitation Wind Pressure Humidity
00:00 +24°C° 1.8 mm 1 mps 714 mmHg 95%
01:00 +24°C° 1.8 mm 1 mps 714 mmHg 95%
02:00 +24°C° 0.9 mm 1 mps 713 mmHg 94%
03:00 +24°C° 0.9 mm 1 mps 713 mmHg 94%
04:00 +23°C° 0.9 mm 1 mps 713 mmHg 93%
05:00 +24°C° 0.2 mm 1 mps 713 mmHg 93%
06:00 +24°C° 0.2 mm 1 mps 714 mmHg 92%
07:00 +25°C° 0.2 mm 1 mps 715 mmHg 91%
08:00 +23°C° 0.3 mm 0 mps 715 mmHg 89%
09:00 +24°C° 0.3 mm 0 mps 715 mmHg 87%
10:00 +25°C° 0.3 mm 0 mps 715 mmHg 85%
11:00 +27°C° 0.6 mm 1 mps 715 mmHg 87%
12:00 +27°C° 0.6 mm 1 mps 714 mmHg 88%
13:00 +28°C° 0.6 mm 1 mps 713 mmHg 89%
14:00 +28°C° 0.5 mm 1 mps 713 mmHg 88%
15:00 +28°C° 0.5 mm 1 mps 712 mmHg 87%
16:00 +28°C° 0.5 mm 1 mps 712 mmHg 87%
17:00 +27°C° 0.1 mm 1 mps 712 mmHg 89%
18:00 +26°C° 0.1 mm 1 mps 713 mmHg 92%
19:00 +23°C° 0.1 mm 0 mps 713 mmHg 94%
20:00 +25°C° 0.4 mm 1 mps 714 mmHg 94%
21:00 +24°C° 0.4 mm 1 mps 714 mmHg 94%
22:00 +24°C° 0.4 mm 1 mps 715 mmHg 94%
23:00 +24°C° 0.5 mm 1 mps 714 mmHg 94%

Day after tomorrow, 3 December, Thursday

Time Temperature Precipitation Wind Pressure Humidity
00:00 +23°C° 0.5 mm 1 mps 714 mmHg 93%
01:00 +23°C° 0.5 mm 1 mps 713 mmHg 93%
02:00 +23°C° 0.4 mm 1 mps 713 mmHg 91%
03:00 +24°C° 0.4 mm 1 mps 713 mmHg 90%
04:00 +24°C° 0.4 mm 1 mps 713 mmHg 89%
05:00 +24°C° 0 mm 1 mps 713 mmHg 87%
06:00 +25°C° 0 mm 1 mps 714 mmHg 86%
07:00 +25°C° 0 mm 1 mps 714 mmHg 85%
08:00 +27°C° 0.1 mm 1 mps 715 mmHg 81%
09:00 +28°C° 0.1 mm 1 mps 715 mmHg 77%
10:00 +30°C° 0.1 mm 2 mps 715 mmHg 73%
11:00 +30°C° 0.4 mm 2 mps 714 mmHg 75%
12:00 +30°C° 0.4 mm 2 mps 713 mmHg 77%
13:00 +30°C° 0.4 mm 2 mps 713 mmHg 79%
14:00 +29°C° 0.3 mm 2 mps 712 mmHg 81%
15:00 +29°C° 0.3 mm 1 mps 712 mmHg 83%
16:00 +28°C° 0.3 mm 1 mps 711 mmHg 85%
17:00 +28°C° 0.1 mm 1 mps 712 mmHg 88%
18:00 +27°C° 0.1 mm 1 mps 712 mmHg 90%
19:00 +26°C° 0.1 mm 1 mps 713 mmHg 92%
20:00 +25°C° 0 mm 1 mps 714 mmHg 92%
21:00 +25°C° 0 mm 1 mps 714 mmHg 92%
22:00 +24°C° 0 mm 1 mps 715 mmHg 92%
23:00 +24°C° 0 mm 1 mps 714 mmHg 91%

4 December, Friday

Time Temperature Precipitation Wind Pressure Humidity
00:00 +24°C° 0 mm 1 mps 714 mmHg 91%
01:00 +24°C° 0 mm 1 mps 714 mmHg 90%
02:00 +24°C° 0 mm 1 mps 714 mmHg 90%
03:00 +23°C° 0 mm 1 mps 714 mmHg 89%
04:00 +23°C° 0 mm 1 mps 714 mmHg 88%
05:00 +24°C° 0 mm 1 mps 714 mmHg 87%
06:00 +24°C° 0 mm 1 mps 715 mmHg 85%
07:00 +23°C° 0 mm 0 mps 715 mmHg 83%
08:00 +26°C° 0.1 mm 1 mps 716 mmHg 80%
09:00 +28°C° 0.1 mm 2 mps 716 mmHg 77%
10:00 +29°C° 0.1 mm 2 mps 716 mmHg 74%
11:00 +29°C° 0.4 mm 2 mps 715 mmHg 75%
12:00 +29°C° 0.4 mm 2 mps 714 mmHg 77%
13:00 +29°C° 0.4 mm 2 mps 714 mmHg 78%
14:00 +29°C° 0.2 mm 1 mps 713 mmHg 79%
15:00 +29°C° 0.2 mm 1 mps 713 mmHg 80%
16:00 +29°C° 0.2 mm 1 mps 712 mmHg 81%
17:00 +27°C° 0.2 mm 1 mps 713 mmHg 84%
18:00 +26°C° 0.2 mm 1 mps 713 mmHg 88%
19:00 +24°C° 0.2 mm 1 mps 714 mmHg 91%
20:00 +24°C° 0 mm 1 mps 714 mmHg 89%
21:00 +23°C° 0 mm 1 mps 715 mmHg 87%
22:00 +23°C° 0 mm 2 mps 715 mmHg 85%
23:00 +23°C° 0 mm 2 mps 715 mmHg 82%

5 December, Saturday

Time Temperature Precipitation Wind Pressure Humidity
00:00 +21°C° 0 mm 2 mps 715 mmHg 80%
01:00 +21°C° 0 mm 2 mps 714 mmHg 77%
02:00 +21°C° 0 mm 2 mps 714 mmHg 73%
03:00 +21°C° 0 mm 2 mps 714 mmHg 70%
04:00 +21°C° 0 mm 2 mps 714 mmHg 66%
05:00 +21°C° 0 mm 2 mps 715 mmHg 65%
06:00 +23°C° 0 mm 2 mps 716 mmHg 64%
07:00 +23°C° 0 mm 2 mps 716 mmHg 63%
08:00 +25°C° 0 mm 1 mps 716 mmHg 62%
09:00 +27°C° 0 mm 1 mps 717 mmHg 60%
10:00 +29°C° 0 mm 1 mps 717 mmHg 59%
11:00 +30°C° 0 mm 2 mps 716 mmHg 59%
12:00 +30°C° 0 mm 2 mps 715 mmHg 60%
13:00 +30°C° 0 mm 2 mps 715 mmHg 60%
14:00 +30°C° 0 mm 2 mps 714 mmHg 64%
15:00 +29°C° 0 mm 2 mps 714 mmHg 68%
16:00 +29°C° 0 mm 1 mps 713 mmHg 72%
17:00 +27°C° 0 mm 1 mps 714 mmHg 77%
18:00 +26°C° 0 mm 1 mps 714 mmHg 83%
19:00 +24°C° 0 mm 1 mps 714 mmHg 88%
20:00 +24°C° 0 mm 1 mps 715 mmHg 85%
21:00 +24°C° 0 mm 1 mps 715 mmHg 82%
22:00 +24°C° 0 mm 1 mps 716 mmHg 79%
23:00 +24°C° 0 mm 1 mps 716 mmHg 78%

6 December, Sunday

Time Temperature Precipitation Wind Pressure Humidity
00:00 +24°C° 0 mm 1 mps 715 mmHg 77%
01:00 +24°C° 0 mm 1 mps 715 mmHg 76%
02:00 +24°C° 0.1 mm 1 mps 715 mmHg 77%
03:00 +24°C° 0.1 mm 1 mps 714 mmHg 78%
04:00 +22°C° 0.1 mm 0 mps 714 mmHg 79%
05:00 +24°C° 0.1 mm 1 mps 715 mmHg 80%
06:00 +24°C° 0.1 mm 1 mps 715 mmHg 82%
07:00 +24°C° 0.1 mm 1 mps 716 mmHg 83%
08:00 +25°C° 0 mm 1 mps 716 mmHg 82%
09:00 +26°C° 0 mm 1 mps 716 mmHg 80%
10:00 +27°C° 0 mm 2 mps 717 mmHg 78%
11:00 +27°C° 0.1 mm 1 mps 716 mmHg 81%
12:00 +27°C° 0.1 mm 1 mps 715 mmHg 83%
13:00 +26°C° 0.1 mm 1 mps 714 mmHg 86%
14:00 +26°C° 0.1 mm 1 mps 713 mmHg 85%
15:00 +27°C° 0.1 mm 1 mps 713 mmHg 85%
16:00 +27°C° 0.1 mm 1 mps 712 mmHg 84%
17:00 +24°C° 0.1 mm 0 mps 713 mmHg 87%
18:00 +23°C° 0.1 mm 0 mps 713 mmHg 89%
19:00 +22°C° 0.1 mm 0 mps 714 mmHg 92%
20:00 +24°C° 0 mm 1 mps 714 mmHg 90%
21:00 +23°C° 0 mm 1 mps 715 mmHg 89%
22:00 +23°C° 0 mm 1 mps 715 mmHg 87%
23:00 +23°C° 0 mm 1 mps 715 mmHg 86%
Show more